HDGA4: War Eagle Creek At Hindsville, AR

                                SHEF ID:       HDGA4     War Eagle Crk nr Hindsville,AR
STATION TYPE:

STAGE RIV-FLOW WTR-TEMP CONDUCT BAT-LOAD
ft cfs F umho/cm volt
Ccp-Rev Ccp-Rev Ccp-Rev Ccp-Rev Ccp-Rev
(America/Chicago)
05/03 00:00 2.08 301 63.09 ---- 12.73
05/03 01:00 2.07 298 62.58 ---- 12.70
05/03 02:00 2.07 298 62.17 ---- 12.65
05/03 03:00 2.06 296 61.77 ---- 12.63
05/03 04:00 2.05 293 61.32 ---- 12.60
05/03 05:00 2.04 291 60.93 ---- 12.57
05/03 06:00 2.03 288 60.58 ---- 12.56
05/03 07:00 2.02 286 60.21 ---- 12.53
05/03 08:00 2.01 283 59.97 ---- 12.68
05/03 09:00 2.00 281 60.26 ---- 12.90
05/03 10:00 2.00 281 60.75 ---- 13.15
05/03 11:00 1.99 278 61.07 ---- 13.42
05/03 12:00 1.98 276 61.43 ---- 13.49
05/03 13:00 1.97 274 62.08 ---- 13.49
05/03 14:00 1.96 271 62.55 ---- 13.89
05/03 15:00 1.95 269 63.46 ---- 13.76
05/03 16:00 1.94 266 64.18 ---- 13.72
05/03 17:00 1.93 264 65.10 ---- 13.22
05/03 18:00 1.92 261 65.53 ---- 13.01
05/03 19:00 1.91 259 65.82 ---- 12.88
05/03 20:00 1.90 257 66.04 ---- 12.84
05/03 21:00 1.89 254 65.98 ---- 12.83
05/03 22:00 1.88 252 65.82 ---- 12.80
05/03 23:00 1.88 252 65.62 ---- 12.78
Data processed at Mon 04May2026 04:13 GMT

NOTICE: If you are parsing this page

Please convert to using our Data API. Starting early 2026 we will be migrating to: https://water.usace.army.mil with modern pages rendered in JavaScript. When this migration completes you will no longer be able to scrape this page! CWMSDataAPI (CDA)

Timeseries IDs (TSIDs)

TSIDs used from left to right in the data table
HIND.Stage.Inst.1Hour.0.Ccp-Rev
HIND.Flow.Inst.1Hour.0.Ccp-Rev
HIND.Temp-Water.Inst.1Hour.0.Ccp-Rev
HIND.Cond.Inst.1Hour.0.Ccp-Rev
HIND.Volt-Battery Load.Inst.1Hour.0.Ccp-Rev

                            

All information presented herein is the property of the government of the United States of America and may be revised or deleted at any time without prior notice. Dissemination of this information without the expressed written consent of the Public Affairs Office, Tulsa District U.S. Army Corps of Engineers is strictly prohibited. These data are gathered electronically and, as presented, have NOT undergone any form of quality control. These data are NOT guaranteed to be valid or correct.